Weather in Sredniy Bugalysh

Russia / Sverdlovsk Oblast     56°17′36″N   58°00′16″E
temp.,
°C
wind,
m/s
gust,
m/s
humid.,
%
clouds,
%
prec.,
mm/h
press.,
hPa
HPBL,
m
16 april, fri
fri1623:00+10sw357645 0.0 102090
02:00+9wsw337731 0.0 101935
05:00+8nnw359480 0.0 1021121
08:00+7nne3793100 0.0 1022322
11:00+8ene5784100 0.1 1024453
14:00+7ene6776100 0.0 1026639
17:00+6e5773100 0.0 1026572
20:00+5e377821 0.0 1026353
17 april, sat
sat1723:00+3ene35835 0.0 102789
02:00+1ne33785 0.0 102740
05:00+1ne22755 0.0 102732
08:00+3nne24668 0.0 1027168
11:00+7nne44525 0.0 1026629
14:00+9n34415 0.0 10251152
17:00+10nnw55363 0.0 10241345
20:00+7nnw36565 0.0 1024156
18 april, sun
sun1823:00+4wnw34665 0.0 102468
02:00+3w35745 0.0 102374
05:00+2wnw35815 0.0 102384
08:00+3nnw510795 0.0 1023544
11:00+4n6863100 0.0 10251293
14:00+5ne565996 0.1 10271292
17:00+5ne663480 0.2 10281989
20:00+3ene610415 0.0 1030610
19 april, mon
mon1923:000ene611484 0.0 1033516
02:00−1e610470 0.0 1034678
05:00−2e59430 0.0 1036551
08:00−2e67350 0.0 1037726
11:00+1e67250 0.0 10381400
14:00+3e56230 0.0 10371701
17:00+4e45240 0.0 10361780
20:00+2e35370 0.0 103796
20 april, tue
tue2023:00−1se25450 0.0 1038125
02:00−1sse23470 0.0 103996
05:00−2ssw11465 0.0 103911
08:000s11365 0.0 1039225
11:00+3nw01295 0.0 1038730
14:00+5nw12275 0.0 10361009
17:00+8nw232515 0.0 10341289
20:00+6nnw34435 0.0 103465